Location: Plainartige
(45.6866°N, 1.7993°E)
Time: 17:14:22
(UTC+00:00)

RS-15 - Pass Details

Date: 03 July 2022
Orbit: 1881 x 2163 km, 64.8° (Epoch: 11 August)

Event Time Altitude Azimuth Distance (km) Brightness Sun altitude
Rises 21:54:29 0° 319° (NW) 5,694 12.1 -16.0°
Reaches altitude 10° 21:58:05 10° 323° (NW) 4,692 11.3 -16.3°
Maximum altitude 22:10:23 63° 44° (NE) 2,341 8.5 -17.2°
Enters shadow 22:21:06 14° 123° (ESE) 4,231 9.3 -18.0°
